Weather History for St.-Anicet, QC

Change the Weather History Date:

Sunday, April 7, 2013

  Actual Average Record
Temperature  
Mean Temperature 46 °F -  
Max Temperature 62 °F - - ()
Min Temperature 29 °F - - ()
Degree Days  
Heating Degree Days 20    
Moisture  
Dew Point 30 °F    
Average Humidity 58    
Maximum Humidity 78    
Minimum Humidity 33    
Precipitation  
Precipitation 0.00 in - - ()
Sea Level Pressure  
Sea Level Pressure 29.88 in    
Wind  
Wind Speed 7 mph ()    
Max Wind Speed 15 mph    
Max Gust Speed -    
T = Trace of Precipitation, MM = Missing Value Source: Averaged Metar Reports

Daily Weather History Graph

Daily Weather History Graph

Search for Another Location

Airport:

Trip Planner

Search our weather history database for the weather conditions in past years. The results will help you decide how hot, cold, wet, or windy it might be!

Date:

Astronomy

Apr. 07, 2013 Rise Set
Actual Time 6:26 AM EDT 7:32 PM EDT
Civil Twilight 5:56 AM EDT 8:03 PM EDT
Nautical Twilight 5:20 AM EDT 8:39 PM EDT
Astronomical Twilight 4:42 AM EDT 9:17 PM EDT
Moon 4:49 AM EDT (4/7) 4:56 PM EDT (4/7)
Length of Visible Light 14h 07m
Length of Day
13h 06m
Waning Crescent, 8% of the Moon is Illuminated
Apr 7
Waning Crescent
Apr 10
New
Apr 18
First Quarter
Apr 25
Full
May 2
Last Quarter

Hourly Weather History & Observations

Time (EDT) Temp. Windchill Dew Point Humidity Pressure Visibility Wind Dir Wind Speed Gust Speed Precip Events Conditions
12:00 AM 31.3 °F 26.6 °F 17.1 °F 56% 30.22 in - East 4.6 mph - N/A   Unknown
1:00 AM 31.6 °F 26.0 °F 17.6 °F 56% 30.17 in - East 5.8 mph - N/A   Unknown
2:00 AM 32 °F - 17 °F 41% 30.13 in - East 5.8 mph - -  
2:00 AM 31.8 °F 26.2 °F 17.4 °F 55% 30.13 in - East 5.8 mph - N/A   Unknown
3:00 AM 32.0 °F 27.5 °F 18.7 °F 58% 30.09 in - ENE 4.6 mph - N/A   Unknown
4:00 AM 31.8 °F 28.5 °F 20.1 °F 62% 30.06 in - NNE 3.5 mph - N/A   Unknown
5:00 AM 31.5 °F 26.8 °F 20.8 °F 65% 30.04 in - East 4.6 mph - N/A   Unknown
6:00 AM 31.8 °F 28.5 °F 25.7 °F 78% 30.02 in - ENE 3.5 mph - N/A   Unknown
7:00 AM 36.0 °F 30.3 °F 28.0 °F 73% 29.94 in - East 6.9 mph - N/A   Unknown
8:00 AM 35 °F - 27 °F 64% 29.91 in - East 5.8 mph - -  
8:00 AM 35.1 °F 30.1 °F 27.3 °F 73% 29.91 in - East 5.8 mph - N/A   Unknown
9:00 AM 35.8 °F 31.9 °F 27.7 °F 72% 29.90 in - NE 4.6 mph - N/A   Unknown
10:00 AM 39.7 °F 36.5 °F 29.7 °F 67% 29.86 in - East 4.6 mph - N/A   Unknown
11:00 AM 46.2 °F 42.7 °F 33.8 °F 62% 29.80 in - East 6.9 mph - N/A   Unknown
12:00 PM 58.8 °F - 30.7 °F 35% 29.75 in - SSW 12.7 mph - N/A   Unknown
1:00 PM 60.8 °F - 31.5 °F 33% 29.71 in - South 13.8 mph - N/A   Unknown
2:00 PM 57 °F - 38 °F 37% 29.73 in - West 15.0 mph - -  
2:00 PM 56.8 °F - 38.1 °F 50% 29.73 in - West 15.0 mph - N/A   Unknown
3:00 PM 55.0 °F - 40.8 °F 59% 29.70 in - South 12.7 mph - N/A   Unknown
4:00 PM 59.7 °F - 38.8 °F 46% 29.68 in - SSW 13.8 mph - N/A   Unknown
5:00 PM 60.3 °F - 36.7 °F 41% 29.67 in - SSW 11.5 mph - N/A   Unknown
6:00 PM 59.5 °F - 35.8 °F 41% 29.66 in - SSW 11.5 mph - N/A   Unknown
7:00 PM 59.7 °F - 35.8 °F 41% 29.68 in - SW 11.5 mph - N/A   Unknown
8:00 PM 49 °F - 42 °F 69% 29.74 in - NW 8.1 mph - -  
8:00 PM 49.5 °F - 41.9 °F 75% 29.74 in - NW 8.1 mph - N/A   Unknown
9:00 PM 46.9 °F - 40.5 °F 78% 29.80 in - WNW 11.5 mph - N/A   Unknown
10:00 PM 46.4 °F 40.4 °F 35.8 °F 67% 29.85 in - West 13.8 mph - N/A   Unknown
11:00 PM 44.6 °F 38.4 °F 35.4 °F 70% 29.89 in - West 12.7 mph - N/A   Unknown